Year,Month,Day,Hour,Minute,Value (Times are PST for temperature in C)
2009,07,28,00,00,20.50
2009,07,28,00,01,20.50
2009,07,28,00,02,20.50
2009,07,28,00,03,20.50
2009,07,28,00,04,20.50
2009,07,28,00,05,20.50
2009,07,28,00,06,20.50
2009,07,28,00,07,20.50
2009,07,28,00,08,20.50
2009,07,28,00,09,20.60
2009,07,28,00,10,20.60
2009,07,28,00,11,20.60
2009,07,28,00,12,20.60
2009,07,28,00,13,20.60
2009,07,28,00,14,20.60
2009,07,28,00,15,20.60
2009,07,28,00,16,20.60
2009,07,28,00,17,20.60
2009,07,28,00,18,20.50
2009,07,28,00,19,20.50
2009,07,28,00,20,20.50
2009,07,28,00,21,20.50
2009,07,28,00,22,20.40
2009,07,28,00,23,20.40
2009,07,28,00,24,20.40
2009,07,28,00,25,20.40
2009,07,28,00,26,20.40
2009,07,28,00,27,20.40
2009,07,28,00,28,20.30
2009,07,28,00,29,20.30
2009,07,28,00,30,20.30
2009,07,28,00,31,20.30
2009,07,28,00,32,20.30
2009,07,28,00,33,20.30
2009,07,28,00,34,20.30
2009,07,28,00,35,20.30
2009,07,28,00,36,20.30
2009,07,28,00,37,20.30
2009,07,28,00,38,20.30
2009,07,28,00,39,20.30
2009,07,28,00,40,20.40
2009,07,28,00,41,20.40
2009,07,28,00,42,20.40
2009,07,28,00,43,20.40
2009,07,28,00,44,20.30
2009,07,28,00,45,20.30
2009,07,28,00,46,20.30
2009,07,28,00,47,20.30
2009,07,28,00,48,20.30
2009,07,28,00,49,20.30
2009,07,28,00,50,20.30
2009,07,28,00,51,20.30
2009,07,28,00,52,20.30
2009,07,28,00,53,20.30
2009,07,28,00,54,20.30
2009,07,28,00,55,20.30
2009,07,28,00,56,20.30
2009,07,28,00,57,20.30
2009,07,28,00,58,20.30
2009,07,28,00,59,20.30
2009,07,28,01,00,20.30
2009,07,28,01,01,20.30
2009,07,28,01,02,20.30
2009,07,28,01,03,20.30
2009,07,28,01,04,20.30
2009,07,28,01,05,20.30
2009,07,28,01,06,20.20
2009,07,28,01,07,20.20
2009,07,28,01,08,20.20
2009,07,28,01,09,20.20
2009,07,28,01,10,20.10
2009,07,28,01,11,20.10
2009,07,28,01,12,20.10
2009,07,28,01,13,20.00
2009,07,28,01,14,20.00
2009,07,28,01,15,20.00
2009,07,28,01,16,19.90
2009,07,28,01,17,19.90
2009,07,28,01,18,19.90
2009,07,28,01,19,19.90
2009,07,28,01,20,19.80
2009,07,28,01,21,19.80
2009,07,28,01,22,19.80
2009,07,28,01,23,19.80
2009,07,28,01,24,19.80
2009,07,28,01,25,19.80
2009,07,28,01,26,19.80
2009,07,28,01,27,19.80
2009,07,28,01,28,19.80
2009,07,28,01,29,19.80
2009,07,28,01,30,19.70
2009,07,28,01,31,19.80
2009,07,28,01,32,19.70
2009,07,28,01,33,19.80
2009,07,28,01,34,19.80
2009,07,28,01,35,19.80
2009,07,28,01,36,19.80
2009,07,28,01,37,19.80
2009,07,28,01,38,19.80
2009,07,28,01,39,19.80
2009,07,28,01,40,19.80
2009,07,28,01,41,19.70
2009,07,28,01,42,19.70
2009,07,28,01,43,19.80
2009,07,28,01,44,19.70
2009,07,28,01,45,19.70
2009,07,28,01,46,19.70
2009,07,28,01,47,19.70
2009,07,28,01,48,19.70
2009,07,28,01,49,19.70
2009,07,28,01,50,19.70
2009,07,28,01,51,19.70
2009,07,28,01,52,19.70
2009,07,28,01,53,19.70
2009,07,28,01,54,19.70
2009,07,28,01,55,19.60
2009,07,28,01,56,19.60
2009,07,28,01,57,19.60
2009,07,28,01,58,19.60
2009,07,28,01,59,19.60
2009,07,28,02,00,19.50
2009,07,28,02,01,19.50
2009,07,28,02,02,19.50
2009,07,28,02,03,19.50
2009,07,28,02,04,19.40
2009,07,28,02,05,19.40
2009,07,28,02,06,19.40
2009,07,28,02,07,19.40
2009,07,28,02,08,19.40
2009,07,28,02,09,19.40
2009,07,28,02,10,19.40
2009,07,28,02,11,19.40
2009,07,28,02,12,19.40
2009,07,28,02,13,19.40
2009,07,28,02,14,19.40
2009,07,28,02,15,19.40
2009,07,28,02,16,19.40
2009,07,28,02,17,19.40
2009,07,28,02,18,19.40
2009,07,28,02,19,19.40
2009,07,28,02,20,19.40
2009,07,28,02,21,19.40
2009,07,28,02,22,19.40
2009,07,28,02,23,19.40
2009,07,28,02,24,19.40
2009,07,28,02,25,19.30
2009,07,28,02,26,19.30
2009,07,28,02,27,19.30
2009,07,28,02,28,19.30
2009,07,28,02,29,19.30
2009,07,28,02,30,19.30
2009,07,28,02,31,19.20
2009,07,28,02,32,19.20
2009,07,28,02,33,19.20
2009,07,28,02,34,19.20
2009,07,28,02,35,19.20
2009,07,28,02,36,19.20
2009,07,28,02,37,19.20
2009,07,28,02,38,19.10
2009,07,28,02,39,19.10
2009,07,28,02,40,19.10
2009,07,28,02,41,19.10
2009,07,28,02,42,19.10
2009,07,28,02,43,19.10
2009,07,28,02,44,19.00
2009,07,28,02,45,19.00
2009,07,28,02,46,19.00
2009,07,28,02,47,18.90
2009,07,28,02,48,19.00
2009,07,28,02,49,19.00
2009,07,28,02,50,19.00
2009,07,28,02,51,19.00
2009,07,28,02,52,19.00
2009,07,28,02,53,19.00
2009,07,28,02,54,19.00
2009,07,28,02,55,19.10
2009,07,28,02,56,19.10
2009,07,28,02,57,19.10
2009,07,28,02,58,19.20
2009,07,28,02,59,19.20
2009,07,28,03,00,19.20
2009,07,28,03,01,19.30
2009,07,28,03,02,19.30
2009,07,28,03,03,19.30
2009,07,28,03,04,19.30
2009,07,28,03,05,19.30
2009,07,28,03,06,19.40
2009,07,28,03,07,19.40
2009,07,28,03,08,19.40
2009,07,28,03,09,19.40
2009,07,28,03,10,19.40
2009,07,28,03,11,19.40
2009,07,28,03,12,19.50
2009,07,28,03,13,19.50
2009,07,28,03,14,19.50
2009,07,28,03,15,19.50
2009,07,28,03,16,19.50
2009,07,28,03,17,19.50
2009,07,28,03,18,19.50
2009,07,28,03,19,19.50
2009,07,28,03,20,19.50
2009,07,28,03,21,19.50
2009,07,28,03,22,19.50
2009,07,28,03,23,19.50
2009,07,28,03,24,19.50
2009,07,28,03,25,19.50
2009,07,28,03,26,19.60
2009,07,28,03,27,19.70
2009,07,28,03,28,19.70
2009,07,28,03,29,19.80
2009,07,28,03,30,19.80
2009,07,28,03,31,19.90
2009,07,28,03,32,19.90
2009,07,28,03,33,19.90
2009,07,28,03,34,19.90
2009,07,28,03,35,20.00
2009,07,28,03,36,20.00
2009,07,28,03,37,20.00
2009,07,28,03,38,20.00
2009,07,28,03,39,20.10
2009,07,28,03,40,20.10
2009,07,28,03,41,20.20
2009,07,28,03,42,20.20
2009,07,28,03,43,20.20
2009,07,28,03,44,20.20
2009,07,28,03,45,20.30
2009,07,28,03,46,20.30
2009,07,28,03,47,20.20
2009,07,28,03,48,20.20
2009,07,28,03,49,20.20
2009,07,28,03,50,20.20
2009,07,28,03,51,20.20
2009,07,28,03,52,20.20
2009,07,28,03,53,20.10
2009,07,28,03,54,20.10
2009,07,28,03,55,20.10
2009,07,28,03,56,20.10
2009,07,28,03,57,20.10
2009,07,28,03,58,20.10
2009,07,28,03,59,20.10
2009,07,28,04,00,20.10
2009,07,28,04,01,20.10
2009,07,28,04,02,20.10
2009,07,28,04,03,20.10
2009,07,28,04,04,20.10
2009,07,28,04,05,20.10
2009,07,28,04,06,20.10
2009,07,28,04,07,20.10
2009,07,28,04,08,20.10
2009,07,28,04,09,20.10
2009,07,28,04,10,20.10
2009,07,28,04,11,20.10
2009,07,28,04,12,20.10
2009,07,28,04,13,20.00
2009,07,28,04,14,20.00
2009,07,28,04,15,20.00
2009,07,28,04,16,20.00
2009,07,28,04,17,19.90
2009,07,28,04,18,19.90
2009,07,28,04,19,19.90
2009,07,28,04,20,19.90
2009,07,28,04,21,19.90
2009,07,28,04,22,19.90
2009,07,28,04,23,19.80
2009,07,28,04,24,19.80
2009,07,28,04,25,19.80
2009,07,28,04,26,19.80
2009,07,28,04,27,19.80
2009,07,28,04,28,19.80
2009,07,28,04,29,19.80
2009,07,28,04,30,19.80
2009,07,28,04,31,19.90
2009,07,28,04,32,19.90
2009,07,28,04,33,19.90
2009,07,28,04,34,19.90
2009,07,28,04,35,20.00
2009,07,28,04,36,20.00
2009,07,28,04,37,20.00
2009,07,28,04,38,20.00
2009,07,28,04,39,20.10
2009,07,28,04,40,20.10
2009,07,28,04,41,20.10
2009,07,28,04,42,20.00
2009,07,28,04,43,20.00
2009,07,28,04,44,20.00
2009,07,28,04,45,20.00
2009,07,28,04,46,20.00
2009,07,28,04,47,20.00
2009,07,28,04,48,20.00
2009,07,28,04,49,20.00
2009,07,28,04,50,20.00
2009,07,28,04,51,20.00
2009,07,28,04,52,20.00
2009,07,28,04,53,20.00
2009,07,28,04,54,20.10
2009,07,28,04,55,20.10
2009,07,28,04,56,20.00
2009,07,28,04,57,20.00
2009,07,28,04,58,20.00
2009,07,28,04,59,20.00
2009,07,28,05,00,20.00
2009,07,28,05,01,20.00
2009,07,28,05,02,20.00
2009,07,28,05,03,20.00
2009,07,28,05,04,20.00
2009,07,28,05,05,20.00
2009,07,28,05,06,20.10
2009,07,28,05,07,20.10
2009,07,28,05,08,20.20
2009,07,28,05,09,20.30
2009,07,28,05,10,20.30
2009,07,28,05,11,20.30
2009,07,28,05,12,20.40
2009,07,28,05,13,20.40
2009,07,28,05,14,20.50
2009,07,28,05,15,20.50
2009,07,28,05,16,20.60
2009,07,28,05,17,20.60
2009,07,28,05,18,20.60
2009,07,28,05,19,20.60
2009,07,28,05,20,20.60
2009,07,28,05,21,20.60
2009,07,28,05,22,20.60
2009,07,28,05,23,20.60
2009,07,28,05,24,20.60
2009,07,28,05,25,20.60
2009,07,28,05,26,20.60
2009,07,28,05,27,20.60
2009,07,28,05,28,20.60
2009,07,28,05,29,20.60
2009,07,28,05,30,20.50
2009,07,28,05,31,20.50
2009,07,28,05,32,20.50
2009,07,28,05,33,20.40
2009,07,28,05,34,20.40
2009,07,28,05,35,20.40
2009,07,28,05,36,20.40
2009,07,28,05,37,20.40
2009,07,28,05,38,20.40
2009,07,28,05,39,20.40
2009,07,28,05,40,20.40
2009,07,28,05,41,20.40
2009,07,28,05,42,20.40
2009,07,28,05,43,20.40
2009,07,28,05,44,20.40
2009,07,28,05,45,20.50
2009,07,28,05,46,20.50
2009,07,28,05,47,20.50
2009,07,28,05,48,20.60
2009,07,28,05,49,20.60
2009,07,28,05,50,20.60
2009,07,28,05,51,20.60
2009,07,28,05,52,20.70
2009,07,28,05,53,20.70
2009,07,28,05,54,20.70
2009,07,28,05,55,20.70
2009,07,28,05,56,20.70
2009,07,28,05,57,20.70
2009,07,28,05,58,20.70
2009,07,28,05,59,20.80
2009,07,28,06,00,20.80
2009,07,28,06,01,20.80
2009,07,28,06,02,20.80
2009,07,28,06,03,20.80
2009,07,28,06,04,20.80
2009,07,28,06,05,20.80
2009,07,28,06,06,20.90
2009,07,28,06,07,20.80
2009,07,28,06,08,20.80
2009,07,28,06,09,20.80
2009,07,28,06,10,20.80
2009,07,28,06,11,20.80
2009,07,28,06,12,20.80
2009,07,28,06,13,20.80
2009,07,28,06,14,20.80
2009,07,28,06,15,20.70
2009,07,28,06,16,20.70
2009,07,28,06,17,20.70
2009,07,28,06,18,20.70
2009,07,28,06,19,20.70
2009,07,28,06,20,20.70
2009,07,28,06,21,20.70
2009,07,28,06,22,20.70
2009,07,28,06,23,20.70
2009,07,28,06,24,20.70
2009,07,28,06,25,20.60
2009,07,28,06,26,20.60
2009,07,28,06,27,20.60
2009,07,28,06,28,20.60
2009,07,28,06,29,20.60
2009,07,28,06,30,20.60
2009,07,28,06,31,20.50
2009,07,28,06,32,20.50
2009,07,28,06,33,20.50
2009,07,28,06,34,20.40
2009,07,28,06,35,20.40
2009,07,28,06,36,20.40
2009,07,28,06,37,20.30
2009,07,28,06,38,20.30
2009,07,28,06,39,20.30
2009,07,28,06,40,20.30
2009,07,28,06,41,20.30
2009,07,28,06,42,20.30
2009,07,28,06,43,20.30
2009,07,28,06,44,20.30
2009,07,28,06,45,20.30
2009,07,28,06,46,20.30
2009,07,28,06,47,20.30
2009,07,28,06,48,20.30
2009,07,28,06,49,20.30
2009,07,28,06,50,20.30
2009,07,28,06,51,20.30
2009,07,28,06,52,20.40
2009,07,28,06,53,20.40
2009,07,28,06,54,20.40
2009,07,28,06,55,20.40
2009,07,28,06,56,20.40
2009,07,28,06,57,20.40
2009,07,28,06,58,20.40
2009,07,28,06,59,20.50
2009,07,28,07,00,20.50
2009,07,28,07,01,20.60
2009,07,28,07,02,20.60
2009,07,28,07,03,20.60
2009,07,28,07,04,20.60
2009,07,28,07,05,20.70
2009,07,28,07,06,20.70
2009,07,28,07,07,20.70
2009,07,28,07,08,20.70
2009,07,28,07,09,20.80
2009,07,28,07,10,20.80
2009,07,28,07,11,20.80
2009,07,28,07,12,20.80
2009,07,28,07,13,20.80
2009,07,28,07,14,20.90
2009,07,28,07,15,20.90
2009,07,28,07,16,20.90
2009,07,28,07,17,20.90
2009,07,28,07,18,21.00
2009,07,28,07,19,21.00
2009,07,28,07,20,21.10
2009,07,28,07,21,21.10
2009,07,28,07,22,21.10
2009,07,28,07,23,21.20
2009,07,28,07,24,21.20
2009,07,28,07,25,21.20
2009,07,28,07,26,21.30
2009,07,28,07,27,21.30
2009,07,28,07,28,21.30
2009,07,28,07,29,21.40
2009,07,28,07,30,21.40
2009,07,28,07,31,21.50
2009,07,28,07,32,21.50
2009,07,28,07,33,21.60
2009,07,28,07,34,21.60
2009,07,28,07,35,21.70
2009,07,28,07,36,21.80
2009,07,28,07,37,21.80
2009,07,28,07,38,21.90
2009,07,28,07,39,22.00
2009,07,28,07,40,22.10
2009,07,28,07,41,22.20
2009,07,28,07,42,22.30
2009,07,28,07,43,22.50
2009,07,28,07,44,22.60
2009,07,28,07,45,22.70
2009,07,28,07,46,22.80
2009,07,28,07,47,23.00
2009,07,28,07,48,23.10
2009,07,28,07,49,23.20
2009,07,28,07,50,23.30
2009,07,28,07,51,23.40
2009,07,28,07,52,23.50
2009,07,28,07,53,23.60
2009,07,28,07,54,23.70
2009,07,28,07,55,23.80
2009,07,28,07,56,23.80
2009,07,28,07,57,23.90
2009,07,28,07,58,24.10
2009,07,28,07,59,24.10
2009,07,28,08,00,24.20
2009,07,28,08,01,24.30
2009,07,28,08,02,24.40
2009,07,28,08,03,24.50
2009,07,28,08,04,24.60
2009,07,28,08,05,24.60
2009,07,28,08,06,24.70
2009,07,28,08,07,24.70
2009,07,28,08,08,24.80
2009,07,28,08,09,24.80
2009,07,28,08,10,24.90
2009,07,28,08,11,24.90
2009,07,28,08,12,24.90
2009,07,28,08,13,25.00
2009,07,28,08,14,25.00
2009,07,28,08,15,25.10
2009,07,28,08,16,25.10
2009,07,28,08,17,25.10
2009,07,28,08,18,25.20
2009,07,28,08,19,25.20
2009,07,28,08,20,25.20
2009,07,28,08,21,25.20
2009,07,28,08,22,25.30
2009,07,28,08,23,25.30
2009,07,28,08,24,25.30
2009,07,28,08,25,25.40
2009,07,28,08,26,25.40
2009,07,28,08,27,25.40
2009,07,28,08,28,25.50
2009,07,28,08,29,25.60
2009,07,28,08,30,25.60
2009,07,28,08,31,25.70
2009,07,28,08,32,25.80
2009,07,28,08,33,25.90
2009,07,28,08,34,25.90
2009,07,28,08,35,26.00
2009,07,28,08,36,26.10
2009,07,28,08,37,26.10
2009,07,28,08,38,26.20
2009,07,28,08,39,26.30
2009,07,28,08,40,26.40
2009,07,28,08,41,26.50
2009,07,28,08,42,26.50
2009,07,28,08,43,26.60
2009,07,28,08,44,26.70
2009,07,28,08,45,26.70
2009,07,28,08,46,26.70
2009,07,28,08,47,26.70
2009,07,28,08,48,26.70
2009,07,28,08,49,26.80
2009,07,28,08,50,26.80
2009,07,28,08,51,26.90
2009,07,28,08,52,27.00
2009,07,28,08,53,27.00
2009,07,28,08,54,27.10
2009,07,28,08,55,27.10
2009,07,28,08,56,27.20
2009,07,28,08,57,27.20
2009,07,28,08,58,27.30
2009,07,28,08,59,27.30
2009,07,28,09,00,27.30
2009,07,28,09,01,27.30
2009,07,28,09,02,27.30
2009,07,28,09,03,27.30
2009,07,28,09,04,27.30
2009,07,28,09,05,27.30
2009,07,28,09,06,27.30
2009,07,28,09,07,27.40
2009,07,28,09,08,27.40
2009,07,28,09,09,27.40
2009,07,28,09,10,27.50
2009,07,28,09,11,27.60
2009,07,28,09,12,27.60
2009,07,28,09,13,27.60
2009,07,28,09,14,27.70
2009,07,28,09,15,27.80
2009,07,28,09,16,27.90
2009,07,28,09,17,27.90
2009,07,28,09,18,28.00
2009,07,28,09,19,28.10
2009,07,28,09,20,28.10
2009,07,28,09,21,28.10
2009,07,28,09,22,28.10
2009,07,28,09,23,28.20
2009,07,28,09,24,28.20
2009,07,28,09,25,28.20
2009,07,28,09,26,28.20
2009,07,28,09,27,28.30
2009,07,28,09,28,28.30
2009,07,28,09,29,28.30
2009,07,28,09,30,28.40
2009,07,28,09,31,28.40
2009,07,28,09,32,28.30
2009,07,28,09,33,28.30
2009,07,28,09,34,28.30
2009,07,28,09,35,28.30
2009,07,28,09,36,28.30
2009,07,28,09,37,28.40
2009,07,28,09,38,28.40
2009,07,28,09,39,28.40
2009,07,28,09,40,28.40
2009,07,28,09,41,28.50
2009,07,28,09,42,28.50
2009,07,28,09,43,28.50
2009,07,28,09,44,28.60
2009,07,28,09,45,28.60
2009,07,28,09,46,28.60
2009,07,28,09,47,28.70
2009,07,28,09,48,28.70
2009,07,28,09,49,28.80
2009,07,28,09,50,28.90
2009,07,28,09,51,28.90
2009,07,28,09,52,28.90
2009,07,28,09,53,28.90
2009,07,28,09,54,28.90
2009,07,28,09,55,28.90
2009,07,28,09,56,28.90
2009,07,28,09,57,28.90
2009,07,28,09,58,29.00
2009,07,28,09,59,29.10
2009,07,28,10,00,29.10
2009,07,28,10,01,29.10
2009,07,28,10,02,29.00
2009,07,28,10,03,28.90
2009,07,28,10,04,28.80
2009,07,28,10,05,28.90
2009,07,28,10,06,29.00
2009,07,28,10,07,29.00
2009,07,28,10,08,29.10
2009,07,28,10,09,29.20
2009,07,28,10,10,29.20
2009,07,28,10,11,29.20
2009,07,28,10,12,29.20
2009,07,28,10,13,29.20
2009,07,28,10,14,29.30
2009,07,28,10,15,29.40
2009,07,28,10,16,29.40
2009,07,28,10,17,29.60
2009,07,28,10,18,29.50
2009,07,28,10,19,29.60
2009,07,28,10,20,29.60
2009,07,28,10,21,29.60
2009,07,28,10,22,29.60
2009,07,28,10,23,29.70
2009,07,28,10,24,29.80
2009,07,28,10,25,29.80
2009,07,28,10,26,29.90
2009,07,28,10,27,30.00
2009,07,28,10,28,30.00
2009,07,28,10,29,30.10
2009,07,28,10,30,30.20
2009,07,28,10,31,30.30
2009,07,28,10,32,30.30
2009,07,28,10,33,30.30
2009,07,28,10,34,30.30
2009,07,28,10,35,30.30
2009,07,28,10,36,30.30
2009,07,28,10,37,30.30
2009,07,28,10,38,30.30
2009,07,28,10,39,30.10
2009,07,28,10,40,30.10
2009,07,28,10,41,30.00
2009,07,28,10,42,30.00
2009,07,28,10,43,29.90
2009,07,28,10,44,29.90
2009,07,28,10,45,29.90
2009,07,28,10,46,29.90
2009,07,28,10,47,29.90
2009,07,28,10,48,29.70
2009,07,28,10,49,29.60
2009,07,28,10,50,29.50
2009,07,28,10,51,29.50
2009,07,28,10,52,29.40
2009,07,28,10,53,29.30
2009,07,28,10,54,29.30
2009,07,28,10,55,29.20
2009,07,28,10,56,29.10
2009,07,28,10,57,29.10
2009,07,28,10,58,29.10
2009,07,28,10,59,29.10
2009,07,28,11,00,29.20
2009,07,28,11,01,29.30
2009,07,28,11,02,29.50
2009,07,28,11,03,29.60
2009,07,28,11,04,29.70
2009,07,28,11,05,29.70
2009,07,28,11,06,29.80
2009,07,28,11,07,29.70
2009,07,28,11,08,29.70
2009,07,28,11,09,29.60
2009,07,28,11,10,29.60
2009,07,28,11,11,29.50
2009,07,28,11,12,29.60
2009,07,28,11,13,29.60
2009,07,28,11,14,29.70
2009,07,28,11,15,29.80
2009,07,28,11,16,29.80
2009,07,28,11,17,29.70
2009,07,28,11,18,29.70
2009,07,28,11,19,29.80
2009,07,28,11,20,29.70
2009,07,28,11,21,29.60
2009,07,28,11,22,29.50
2009,07,28,11,23,29.50
2009,07,28,11,24,29.60
2009,07,28,11,25,29.70
2009,07,28,11,26,29.70
2009,07,28,11,27,29.80
2009,07,28,11,28,29.90
2009,07,28,11,29,30.10
2009,07,28,11,30,30.20
2009,07,28,11,31,30.30
2009,07,28,11,32,30.40
2009,07,28,11,33,30.50
2009,07,28,11,34,30.60
2009,07,28,11,35,30.70
2009,07,28,11,36,30.80
2009,07,28,11,37,30.90
2009,07,28,11,38,31.00
2009,07,28,11,39,31.10
2009,07,28,11,40,31.10
2009,07,28,11,41,31.20
2009,07,28,11,42,31.30
2009,07,28,11,43,31.40
2009,07,28,11,44,31.50
2009,07,28,11,45,31.70
2009,07,28,11,46,31.80
2009,07,28,11,47,31.80
2009,07,28,11,48,31.80
2009,07,28,11,49,31.80
2009,07,28,11,50,31.70
2009,07,28,11,51,31.70
2009,07,28,11,52,31.70
2009,07,28,11,53,31.80
2009,07,28,11,54,31.80
2009,07,28,11,55,31.90
2009,07,28,11,56,32.00
2009,07,28,11,57,32.00
2009,07,28,11,58,32.10
2009,07,28,11,59,32.10
2009,07,28,12,00,32.20
2009,07,28,12,01,32.20
2009,07,28,12,02,32.10
2009,07,28,12,03,32.20
2009,07,28,12,04,32.20
2009,07,28,12,05,32.30
2009,07,28,12,06,32.30
2009,07,28,12,07,32.50
2009,07,28,12,08,32.60
2009,07,28,12,09,32.70
2009,07,28,12,10,32.70
2009,07,28,12,11,32.70
2009,07,28,12,12,32.80
2009,07,28,12,13,32.80
2009,07,28,12,14,32.80
2009,07,28,12,15,32.90
2009,07,28,12,16,32.90
2009,07,28,12,17,33.00
2009,07,28,12,18,33.00
2009,07,28,12,19,32.90
2009,07,28,12,20,32.80
2009,07,28,12,21,32.80
2009,07,28,12,22,32.70
2009,07,28,12,23,32.70
2009,07,28,12,24,32.70
2009,07,28,12,25,32.70
2009,07,28,12,26,32.80
2009,07,28,12,27,32.80
2009,07,28,12,28,32.90
2009,07,28,12,29,33.00
2009,07,28,12,30,33.10
2009,07,28,12,31,33.10
2009,07,28,12,32,33.20
2009,07,28,12,33,33.20
2009,07,28,12,34,33.20
2009,07,28,12,35,33.20
2009,07,28,12,36,33.10
2009,07,28,12,37,33.10
2009,07,28,12,38,33.10
2009,07,28,12,39,33.10
2009,07,28,12,40,33.00
2009,07,28,12,41,33.00
2009,07,28,12,42,32.90
2009,07,28,12,43,33.00
2009,07,28,12,44,33.10
2009,07,28,12,45,33.10
2009,07,28,12,46,33.10
2009,07,28,12,47,33.10
2009,07,28,12,48,33.10
2009,07,28,12,49,33.10
2009,07,28,12,50,33.10
2009,07,28,12,51,33.10
2009,07,28,12,52,33.00
2009,07,28,12,53,33.10
2009,07,28,12,54,33.10
2009,07,28,12,55,33.20
2009,07,28,12,56,33.20
2009,07,28,12,57,33.20
2009,07,28,12,58,33.10
2009,07,28,12,59,33.10
2009,07,28,13,00,33.10
2009,07,28,13,01,33.10
2009,07,28,13,02,33.10
2009,07,28,13,03,33.10
2009,07,28,13,04,33.20
2009,07,28,13,05,33.30
2009,07,28,13,06,33.30
2009,07,28,13,07,33.40
2009,07,28,13,08,33.50
2009,07,28,13,09,33.60
2009,07,28,13,10,33.60
2009,07,28,13,11,33.70
2009,07,28,13,12,33.70
2009,07,28,13,13,33.70
2009,07,28,13,14,33.80
2009,07,28,13,15,33.80
2009,07,28,13,16,33.80
2009,07,28,13,17,33.80
2009,07,28,13,18,33.80
2009,07,28,13,19,33.80
2009,07,28,13,20,33.80
2009,07,28,13,21,33.80
2009,07,28,13,22,33.70
2009,07,28,13,23,33.60
2009,07,28,13,24,33.50
2009,07,28,13,25,33.40
2009,07,28,13,26,33.40
2009,07,28,13,27,33.40
2009,07,28,13,28,33.30
2009,07,28,13,29,33.30
2009,07,28,13,30,33.30
2009,07,28,13,31,33.30
2009,07,28,13,32,33.30
2009,07,28,13,33,33.30
2009,07,28,13,34,33.40
2009,07,28,13,35,33.50
2009,07,28,13,36,33.60
2009,07,28,13,37,33.80
2009,07,28,13,38,33.80
2009,07,28,13,39,33.90
2009,07,28,13,40,34.00
2009,07,28,13,41,34.10
2009,07,28,13,42,34.20
2009,07,28,13,43,34.20
2009,07,28,13,44,34.10
2009,07,28,13,45,33.90
2009,07,28,13,46,33.80
2009,07,28,13,47,33.70
2009,07,28,13,48,33.60
2009,07,28,13,49,33.60
2009,07,28,13,50,33.70
2009,07,28,13,51,33.70
2009,07,28,13,52,33.80
2009,07,28,13,53,33.90
2009,07,28,13,54,33.90
2009,07,28,13,55,34.00
2009,07,28,13,56,34.10
2009,07,28,13,57,34.10
2009,07,28,13,58,34.20
2009,07,28,13,59,34.30
2009,07,28,14,00,34.40
2009,07,28,14,01,34.60
2009,07,28,14,02,34.70
2009,07,28,14,03,34.70
2009,07,28,14,04,34.70
2009,07,28,14,05,34.60
2009,07,28,14,06,34.60
2009,07,28,14,07,34.50
2009,07,28,14,08,34.50
2009,07,28,14,09,34.40
2009,07,28,14,10,34.30
2009,07,28,14,11,34.20
2009,07,28,14,12,34.20
2009,07,28,14,13,34.30
2009,07,28,14,14,34.30
2009,07,28,14,15,34.20
2009,07,28,14,16,34.10
2009,07,28,14,17,34.10
2009,07,28,14,18,34.00
2009,07,28,14,19,33.80
2009,07,28,14,20,33.70
2009,07,28,14,21,33.60
2009,07,28,14,22,33.50
2009,07,28,14,23,33.50
2009,07,28,14,24,33.40
2009,07,28,14,25,33.40
2009,07,28,14,26,33.40
2009,07,28,14,27,33.30
2009,07,28,14,28,33.10
2009,07,28,14,29,33.10
2009,07,28,14,30,33.10
2009,07,28,14,31,33.10
2009,07,28,14,32,33.10
2009,07,28,14,33,33.00
2009,07,28,14,34,32.90
2009,07,28,14,35,32.90
2009,07,28,14,36,32.90
2009,07,28,14,37,32.90
2009,07,28,14,38,32.90
2009,07,28,14,39,33.10
2009,07,28,14,40,33.20
2009,07,28,14,41,33.20
2009,07,28,14,42,33.30
2009,07,28,14,43,33.40
2009,07,28,14,44,33.50
2009,07,28,14,45,33.60
2009,07,28,14,46,33.70
2009,07,28,14,47,33.60
2009,07,28,14,48,33.70
2009,07,28,14,49,33.60
2009,07,28,14,50,33.60
2009,07,28,14,51,33.50
2009,07,28,14,52,33.30
2009,07,28,14,53,33.20
2009,07,28,14,54,33.10
2009,07,28,14,55,33.20
2009,07,28,14,56,33.20
2009,07,28,14,57,33.20
2009,07,28,14,58,33.30
2009,07,28,14,59,33.30
2009,07,28,15,00,33.20
2009,07,28,15,01,33.10
2009,07,28,15,02,33.00
2009,07,28,15,03,33.00
2009,07,28,15,04,32.90
2009,07,28,15,05,32.90
2009,07,28,15,06,32.80
2009,07,28,15,07,32.80
2009,07,28,15,08,32.90
2009,07,28,15,09,33.00
2009,07,28,15,10,33.10
2009,07,28,15,11,33.30
2009,07,28,15,12,33.30
2009,07,28,15,13,33.40
2009,07,28,15,14,33.50
2009,07,28,15,15,33.60
2009,07,28,15,16,33.60
2009,07,28,15,17,33.60
2009,07,28,15,18,33.70
2009,07,28,15,19,33.70
2009,07,28,15,20,33.70
2009,07,28,15,21,33.60
2009,07,28,15,22,33.60
2009,07,28,15,23,33.50
2009,07,28,15,24,33.40
2009,07,28,15,25,33.30
2009,07,28,15,26,33.30
2009,07,28,15,27,33.30
2009,07,28,15,28,33.40
2009,07,28,15,29,33.50
2009,07,28,15,30,33.50
2009,07,28,15,31,33.60
2009,07,28,15,32,33.60
2009,07,28,15,33,33.70
2009,07,28,15,34,33.80
2009,07,28,15,35,33.90
2009,07,28,15,36,33.90
2009,07,28,15,37,33.90
2009,07,28,15,38,33.90
2009,07,28,15,39,33.80
2009,07,28,15,40,33.80
2009,07,28,15,41,33.80
2009,07,28,15,42,33.90
2009,07,28,15,43,33.90
2009,07,28,15,44,34.00
2009,07,28,15,45,34.10
2009,07,28,15,46,34.20
2009,07,28,15,47,34.10
2009,07,28,15,48,34.10
2009,07,28,15,49,34.10
2009,07,28,15,50,33.90
2009,07,28,15,51,33.80
2009,07,28,15,52,33.70
2009,07,28,15,53,33.60
2009,07,28,15,54,33.50
2009,07,28,15,55,33.50
2009,07,28,15,56,33.50
2009,07,28,15,57,33.60
2009,07,28,15,58,33.60
2009,07,28,15,59,33.60
2009,07,28,16,00,33.60
2009,07,28,16,01,33.60
2009,07,28,16,02,33.60
2009,07,28,16,03,33.60
2009,07,28,16,04,33.60
2009,07,28,16,05,33.60
2009,07,28,16,06,33.60
2009,07,28,16,07,33.70
2009,07,28,16,08,33.80
2009,07,28,16,09,33.80
2009,07,28,16,10,33.80
2009,07,28,16,11,33.80
2009,07,28,16,12,33.80
2009,07,28,16,13,33.80
2009,07,28,16,14,33.80
2009,07,28,16,15,33.90
2009,07,28,16,16,33.90
2009,07,28,16,17,34.00
2009,07,28,16,18,34.10
2009,07,28,16,19,34.00
2009,07,28,16,20,33.90
2009,07,28,16,21,33.80
2009,07,28,16,22,33.80
2009,07,28,16,23,33.80
2009,07,28,16,24,33.90
2009,07,28,16,25,33.90
2009,07,28,16,26,34.00
2009,07,28,16,27,34.00
2009,07,28,16,28,34.10
2009,07,28,16,29,34.20
2009,07,28,16,30,34.20
2009,07,28,16,31,34.30
2009,07,28,16,32,34.30
2009,07,28,16,33,34.30
2009,07,28,16,34,34.40
2009,07,28,16,35,34.40
2009,07,28,16,36,34.50
2009,07,28,16,37,34.60
2009,07,28,16,38,34.60
2009,07,28,16,39,34.70
2009,07,28,16,40,34.70
2009,07,28,16,41,34.70
2009,07,28,16,42,34.70
2009,07,28,16,43,34.70
2009,07,28,16,44,34.70
2009,07,28,16,45,34.70
2009,07,28,16,46,34.80
2009,07,28,16,47,34.80
2009,07,28,16,48,34.80
2009,07,28,16,49,34.80
2009,07,28,16,50,34.70
2009,07,28,16,51,34.70
2009,07,28,16,52,34.60
2009,07,28,16,53,34.50
2009,07,28,16,54,34.40
2009,07,28,16,55,34.30
2009,07,28,16,56,34.00
2009,07,28,16,57,33.80
2009,07,28,16,58,33.70
2009,07,28,16,59,33.60
2009,07,28,17,00,33.50
2009,07,28,17,01,33.50
2009,07,28,17,02,33.50
2009,07,28,17,03,33.60
2009,07,28,17,04,33.60
2009,07,28,17,05,33.60
2009,07,28,17,06,33.60
2009,07,28,17,07,33.60
2009,07,28,17,08,33.60
2009,07,28,17,09,33.70
2009,07,28,17,10,33.70
2009,07,28,17,11,33.70
2009,07,28,17,12,33.80
2009,07,28,17,13,33.80
2009,07,28,17,14,33.80
2009,07,28,17,15,33.90
2009,07,28,17,16,33.90
2009,07,28,17,17,33.90
2009,07,28,17,18,33.90
2009,07,28,17,19,33.80